Regional Weather Roundup
Issued by NWS

Home | Current Version | Previous Version | Graphics & Text | Print | Product List | Glossary Off
Versions: 1 2 3 4 5 6 7 8 9 10 11 12 13 14 15 16 17 18 19 20 21 22 23 24 25 26 27 28 29 30 31 32 33 34 35 36 37 38 39 40 41 42 43 44 45 46 47 48 49 50

901
ASUS43 KTOP 201459
RWRKS

WEATHER ROUNDUP FOR KANSAS
NATIONAL WEATHER SERVICE GOODLAND KS
900 AM CST MON FEB 20 2017

NOTE:  "FAIR" INDICATES FEW OR NO CLOUDS BELOW 12,000 FEET WITH NO
SIGNIFICANT WEATHER AND/OR OBSTRUCTIONS TO VISIBILITY.

KSZ001>006-013>018-027>032-041>047-201600-
NORTHWEST KANSAS

CITY           SKY/WX    TMP DP  RH WIND       PRES   REMARKS
GOODLAND       SUNNY     48  19  31 NW22      29.88R
HAYS           CLOUDY    49  44  83 W7        29.79R
HILL CITY      CLOUDY    53  37  54 NW13G21   29.79R
RUSSELL        PTSUNNY   53  52  96 SW10      29.76R
$$

KSZ061>065-074>080-084>089-201600-
SOUTHWEST KANSAS

CITY           SKY/WX    TMP DP  RH WIND       PRES   REMARKS
DODGE CITY     MOSUNNY   49  36  61 NW12      29.83R
ELKHART          N/A     48  26  42 NW13        N/A
GARDEN CITY    SUNNY     49  31  49 NW17      29.85R
GREAT BEND     PTSUNNY   53  50  89 SW9       29.79R
LIBERAL        SUNNY     48  32  53 NW18      29.87R
$$

KSZ066>073-081>083-090>101-201600-
SOUTHEAST KANSAS

CITY           SKY/WX    TMP DP  RH WIND       PRES   REMARKS
CHANUTE        PTSUNNY   61  58  90 SE13      29.79F
COFFEYVILLE    CLOUDY    61  59  93 SE14      29.80F
HUTCHINSON     CLOUDY    55  53  93 S12       29.79R FOG
MEDICINE LODGE   N/A     53  50  89 CALM      29.81R
NEWTON         PTSUNNY   56  54  93 S15       29.80S
PARSONS        MOSUNNY   61  58  90 SE6       29.80F
WICHITA INTL   CLOUDY    56  54  93 S10       29.80S
WICHITA JABRA  CLOUDY    57  54  89 S13       29.80S
WINFIELD       CLOUDY    57  54  89 S8        29.84R
$$

KSZ007>012-019>026-033>040-048>060-102>105-201600-
NORTHEAST KANSAS

CITY           SKY/WX    TMP DP  RH WIND       PRES   REMARKS
CONCORDIA      CLOUDY    58  57  97 S13       29.77R
EMPORIA        CLOUDY    58  58 100 S7        29.81R
LAWRENCE       CLOUDY    61  56  83 SE12      29.81R
MANHATTAN      CLOUDY    58  57  97 SW6       29.79R
OLATHE IND     LGT RAIN  59  56  89 SE12      29.83F
OLATHE EXE     LGT RAIN  58  57  97 S16       29.83F
SALINA         CLOUDY    59  56  89 S12       29.79R
TOPEKA BILLARD LGT RAIN  61  56  83 SE7       29.80S
TOPEKA FORBES  CLOUDY    62  57  83 S9        29.80R
$$




USA.gov is the U.S. government's official web portal to all federal, state and local government web resources and services.